EW9788 Palm Harbor FL US current weather conditions

sailwx.info

Wind from 100

Air temperature 24.4° C
Dewpoint 23.1° C

Last reported at 2019-Jul-17 04:04 UTC.
Time now 2019-Jul-17 04:57 UTC

Location: N 28°04' W 082°44'.
View on Google Maps.

See reports from other nearby stations

  
Tides and Currents Weather Stations Pressure Air Temp Water Temp Dewpoint Dewpoint Depression Visibility Wind Speed Wind Dir Waves Ship Positions
date/time (UTC)wind fromknots sea level pressurealtimeterstation pressurevisibilityair tempwater tempwave heightnotes
2019-Jul-17 04:04 100 24.4
2019-Jul-17 04:00 100 23.9
2019-Jul-17 03:54 100 0 23.9
2019-Jul-17 03:46 100 0 23.9
2019-Jul-17 03:44 100 0 23.9
2019-Jul-17 03:33 117 1 23.9
2019-Jul-17 03:30 117 1 23.9
2019-Jul-17 03:24 117 1 23.9
2019-Jul-17 03:19 088 1 23.3
2019-Jul-17 03:13 088 1 23.9
2019-Jul-17 03:04 089 0 23.9
2019-Jul-17 03:00 085 0 23.3
2019-Jul-17 02:53 080 0 23.9
2019-Jul-17 02:47 037 0 23.9
2019-Jul-17 02:43 037 0 23.9
2019-Jul-17 02:34 112 0 23.9
2019-Jul-17 02:30 112 0 23.9
2019-Jul-17 02:24 069 0 24.4
2019-Jul-17 02:15 071 0 24.4
2019-Jul-17 02:03 102 0 24.4
2019-Jul-17 02:00 109 24.4
2019-Jul-17 01:54 360 24.4
2019-Jul-17 01:46 23.9
2019-Jul-17 01:44 360 24.4
2019-Jul-17 01:34 360 24.4
2019-Jul-17 01:23 357 1 24.4
2019-Jul-17 01:15 054 0 23.9
2019-Jul-17 01:03 069 1 24.4
2019-Jul-17 00:53 114 5 25.6
2019-Jul-17 00:45 089 5 27.2
2019-Jul-17 00:44 109 5 27.8
2019-Jul-17 00:33 110 5 28.9
2019-Jul-17 00:30 119 5 29.4
2019-Jul-17 00:24 104 1 30.6
2019-Jul-17 00:17 330 1 30.6
2019-Jul-17 00:13 330 1 31.1
2019-Jul-17 00:03 288 2 31.1
2019-Jul-17 00:00 30.6
2019-Jul-16 23:54 336 1 31.1
2019-Jul-16 23:46 340 1 31.1
2019-Jul-16 23:43 316 1 31.1
2019-Jul-16 23:34 360 4 31.1
2019-Jul-16 23:23 343 2 31.1
2019-Jul-16 23:15 336 2 31.1
2019-Jul-16 23:14 357 3 31.1
2019-Jul-16 23:04 309 3 31.1
2019-Jul-16 22:53 333 3 31.1
2019-Jul-16 22:45 288 3 30.6
2019-Jul-16 22:34 333 5 31.1
2019-Jul-16 22:30 339 5 31.1
2019-Jul-16 22:23 013 4 31.7
2019-Jul-16 22:16 350 3 31.7
2019-Jul-16 22:13 360 3 31.7
2019-Jul-16 22:04 254 4 32.2
2019-Jul-16 21:53 356 4 32.2
2019-Jul-16 21:45 305 3 32.2
2019-Jul-16 21:44 329 4 32.2
2019-Jul-16 21:33 272 4 32.2
2019-Jul-16 21:24 352 4 32.2
2019-Jul-16 21:15 282 3 32.2
2019-Jul-16 21:03 311 3 32.2
2019-Jul-16 21:00 253 3 32.2
2019-Jul-16 20:54 326 4 32.2
2019-Jul-16 20:46 329 3 32.2
2019-Jul-16 20:43 318 3 32.2
2019-Jul-16 20:34 268 3 32.2
2019-Jul-16 20:30 335 4 32.2
2019-Jul-16 20:24 335 5 32.2
2019-Jul-16 20:15 311 4 31.7
2019-Jul-16 20:04 332 4 32.2
2019-Jul-16 19:53 339 4 31.7
2019-Jul-16 19:45 306 4 31.1
2019-Jul-16 19:34 264 3 31.1
2019-Jul-16 19:23 277 4 31.7
2019-Jul-16 19:15 344 4 31.1
2019-Jul-16 19:03 264 4 32.2
2019-Jul-16 18:54 328 3 32.2
2019-Jul-16 18:45 263 4 32.2
2019-Jul-16 18:33 295 2 32.2
2019-Jul-16 18:30 304 2 31.7
2019-Jul-16 18:24 270 2 32.2
2019-Jul-16 18:17 296 1 33.3
2019-Jul-16 18:13 294 1 33.9
2019-Jul-16 18:04 148 2 35.0
2019-Jul-16 17:53 030 1 33.9
2019-Jul-16 17:46 100 1 33.9
2019-Jul-16 17:43 103 0 34.4
2019-Jul-16 17:34 359 1 33.9
2019-Jul-16 17:23 008 1 33.9
2019-Jul-16 17:15 095 1 33.3
2019-Jul-16 17:03 137 1 33.3
2019-Jul-16 17:00 107 0 33.3
2019-Jul-16 16:54 095 1 33.3
2019-Jul-16 16:45 089 2 32.8
2019-Jul-16 16:33 357 1 32.8
2019-Jul-16 16:24 137 1 32.8
2019-Jul-16 16:17 343 1 32.2
2019-Jul-16 16:13 343 1 32.2
2019-Jul-16 16:04 100 0 32.8
2019-Jul-16 16:00 082 0 32.2
2019-Jul-16 15:54 134 0 32.2
2019-Jul-16 15:47 092 0 31.7
2019-Jul-16 15:43 092 0 32.2
2019-Jul-16 15:34 109 1 31.7
2019-Jul-16 15:24 138 1 31.7
2019-Jul-16 15:15 167 1 30.6
2019-Jul-16 15:03 093 1 30.6
2019-Jul-16 14:53 090 2 30.6
2019-Jul-16 14:45 128 2 30.0
2019-Jul-16 14:44 126 1 30.6
2019-Jul-16 14:33 151 2 30.6
2019-Jul-16 14:24 134 1 30.6
2019-Jul-16 14:16 134 2 29.4
2019-Jul-16 14:13 130 2 30.0
2019-Jul-16 14:04 145 2 30.0
2019-Jul-16 14:00 119 2 29.4
2019-Jul-16 13:54 127 2 30.0
2019-Jul-16 13:47 131 2 29.4
2019-Jul-16 13:43 136 2 30.0
2019-Jul-16 13:34 154 1 29.4
2019-Jul-16 13:23 160 1 28.9
2019-Jul-16 13:15 119 2 28.9
2019-Jul-16 13:14 147 2 28.9
2019-Jul-16 13:03 154 1 28.9
2019-Jul-16 13:00 126 1 28.3
2019-Jul-16 12:54 133 2 28.3
2019-Jul-16 12:45 109 2 28.3
2019-Jul-16 12:33 131 2 27.8
2019-Jul-16 12:24 167 2 27.8
2019-Jul-16 12:17 127 1 27.2
2019-Jul-16 12:13 148 0 27.2
2019-Jul-16 12:03 155 0 26.7
2019-Jul-16 12:00 136 0 26.1
2019-Jul-16 11:54 136 0 26.1
2019-Jul-16 11:46 136 0 25.6
2019-Jul-16 11:43 150 0 25.6
2019-Jul-16 11:34 258 25.0
2019-Jul-16 11:23 258 25.0
2019-Jul-16 11:15 258 24.4
2019-Jul-16 11:14 258 25.0
2019-Jul-16 11:03 258 25.0
2019-Jul-16 11:00 172 24.4
2019-Jul-16 10:54 172 25.0
2019-Jul-16 10:48 103 24.4
2019-Jul-16 10:43 103 25.0
2019-Jul-16 10:34 103 25.0
2019-Jul-16 10:30 103 24.4
2019-Jul-16 10:23 103 25.0
2019-Jul-16 10:15 103 24.4
2019-Jul-16 10:14 103 25.0
2019-Jul-16 10:04 103 0 25.0
2019-Jul-16 09:53 103 0 25.0
2019-Jul-16 09:45 103 0 25.0
2019-Jul-16 09:33 103 0 25.0
2019-Jul-16 09:30 103 0 25.0
2019-Jul-16 09:24 103 0 25.0
2019-Jul-16 09:16 103 0 25.0
2019-Jul-16 09:13 103 0 25.6
2019-Jul-16 09:04 103 0 25.0
2019-Jul-16 08:53 103 25.0
2019-Jul-16 08:46 103 25.0
2019-Jul-16 08:43 103 25.0
2019-Jul-16 08:34 103 0 25.0
2019-Jul-16 08:30 103 0 25.0
2019-Jul-16 08:24 103 25.0
2019-Jul-16 08:15 103 25.0
2019-Jul-16 08:03 103 1 25.6
2019-Jul-16 08:00 103 1 25.0
2019-Jul-16 07:54 089 1 25.6
2019-Jul-16 07:47 089 0 25.0
2019-Jul-16 07:43 089 0 25.6
2019-Jul-16 07:34 089 25.6
2019-Jul-16 07:23 089 0 25.6
2019-Jul-16 07:15 089 0 25.0
2019-Jul-16 07:14 089 25.6
2019-Jul-16 07:03 089 25.6
2019-Jul-16 07:00 089 0 25.0
2019-Jul-16 06:54 089 0 25.6
2019-Jul-16 06:45 089 0 25.0
2019-Jul-16 06:34 089 0 25.6
2019-Jul-16 06:23 089 0 25.6
2019-Jul-16 06:15 089 0 25.6
2019-Jul-16 06:03 089 0 25.6
2019-Jul-16 05:53 089 26.1
2019-Jul-16 05:45 089 25.6
2019-Jul-16 05:44 089 26.1
2019-Jul-16 05:34 089 25.6
2019-Jul-16 05:30 089 25.6
2019-Jul-16 05:24 089 25.6
2019-Jul-16 05:15 089 25.6
2019-Jul-16 05:14 089 26.1
2019-Jul-16 05:04 089 26.1
2019-Jul-16 04:53 089 26.1
2019-Jul-16 04:45 089 25.6
2019-Jul-16 04:44 089 26.1
2019-Jul-16 04:34 089 26.1
2019-Jul-16 04:24 089 26.1
2019-Jul-16 04:17 089 26.1
2019-Jul-16 04:13 089 26.1
2019-Jul-16 04:03 089 26.7
2019-Jul-16 04:00 089 26.1
2019-Jul-16 03:54 089 26.7
2019-Jul-16 03:46 089 26.1
2019-Jul-16 03:43 089 26.1
2019-Jul-16 03:34 089 26.7
2019-Jul-16 03:23 089 26.7
2019-Jul-16 03:15 089 26.1
2019-Jul-16 03:14 089 26.7
2019-Jul-16 03:03 089 26.7
2019-Jul-16 03:00 089 26.7
2019-Jul-16 02:54 089 27.2
2019-Jul-16 02:45 089 26.7
2019-Jul-16 02:34 089 27.2
2019-Jul-16 02:30 089 27.2
2019-Jul-16 02:24 089 27.2
2019-Jul-16 02:16 089 0 27.2
2019-Jul-16 02:13 089 0 27.2
2019-Jul-16 02:04 089 0 27.8
2019-Jul-16 02:00 089 0 27.2
2019-Jul-16 01:54 088 0 27.8
2019-Jul-16 01:45 088 0 27.8
2019-Jul-16 01:34 088 27.8
2019-Jul-16 01:23 088 28.3
2019-Jul-16 01:15 088 27.8
2019-Jul-16 01:03 088 28.3
2019-Jul-16 01:00 088 28.3
2019-Jul-16 00:54 088 28.3
2019-Jul-16 00:47 088 28.3
2019-Jul-16 00:43 088 28.3
2019-Jul-16 00:34 088 28.3
2019-Jul-16 00:30 088 0 28.3
2019-Jul-16 00:24 088 0 28.3
2019-Jul-16 00:14 088 28.9
2019-Jul-16 00:04 088 0 28.9
2019-Jul-15 23:53 093 1 29.4
2019-Jul-15 23:45 093 1 28.9
2019-Jul-15 23:33 099 4 29.4
2019-Jul-15 23:30 127 3 29.4
2019-Jul-15 23:24 114 1 30.6
2019-Jul-15 23:17 013 0 31.1
2019-Jul-15 23:13 013 1 31.1
2019-Jul-15 23:04 044 0 31.7
2019-Jul-15 23:00 093 0 31.7
2019-Jul-15 22:54 352 1 32.2
2019-Jul-15 22:46 353 2 31.7
2019-Jul-15 22:43 003 1 31.7
2019-Jul-15 22:34 048 2 32.2
2019-Jul-15 22:23 342 2 32.2
2019-Jul-15 22:15 336 4 31.7
2019-Jul-15 22:03 359 4 32.2
2019-Jul-15 22:00 344 4 31.1
2019-Jul-15 21:54 332 3 32.2
2019-Jul-15 21:45 353 4 31.1
2019-Jul-15 21:34 339 4 31.7
2019-Jul-15 21:30 325 4 31.7
2019-Jul-15 21:24 340 4 32.2
2019-Jul-15 21:16 320 4 31.7
2019-Jul-15 21:13 337 4 32.2
2019-Jul-15 21:04 344 4 32.2
2019-Jul-15 20:53 332 4 31.7
2019-Jul-15 20:45 325 3 31.1
2019-Jul-15 20:34 256 3 31.7
2019-Jul-15 20:23 294 3 31.1
2019-Jul-15 20:15 332 5 31.1
2019-Jul-15 20:04 353 5 31.1
2019-Jul-15 19:53 287 4 31.7
2019-Jul-15 19:45 342 4 31.1
2019-Jul-15 19:33 294 4 31.7
2019-Jul-15 19:30 319 4 31.7
2019-Jul-15 19:24 292 4 32.2
2019-Jul-15 19:17 285 3 32.2
2019-Jul-15 19:13 280 3 32.2
2019-Jul-15 19:03 291 3 32.2
2019-Jul-15 19:00 294 3 31.7
2019-Jul-15 18:53 312 3 32.2
2019-Jul-15 18:48 272 4 31.7
2019-Jul-15 18:43 240 4 32.2
2019-Jul-15 18:34 236 4 31.7
2019-Jul-15 18:30 318 4 31.7
2019-Jul-15 18:24 318 4 31.1
2019-Jul-15 18:15 305 2 31.1
2019-Jul-15 18:03 265 3 30.6
2019-Jul-15 18:00 287 2 30.0
2019-Jul-15 17:54 302 3 30.6
2019-Jul-15 17:45 271 3 30.6
2019-Jul-15 17:33 287 4 30.6
2019-Jul-15 17:30 332 3 30.6
2019-Jul-15 17:24 347 3 31.1
2019-Jul-15 17:17 264 3 31.1
2019-Jul-15 17:13 240 4 31.1
2019-Jul-15 17:04 278 3 31.7
2019-Jul-15 16:53 325 1 33.3
2019-Jul-15 16:45 061 1 32.8
2019-Jul-15 16:44 095 1 32.8
2019-Jul-15 16:33 110 0 33.3
2019-Jul-15 16:23 217 1 32.8
2019-Jul-15 16:15 230 0 32.2
2019-Jul-15 16:03 133 1 32.2
2019-Jul-15 15:53 144 0 32.2
2019-Jul-15 15:45 141 1 31.7
2019-Jul-15 15:33 150 1 31.7
2019-Jul-15 15:24 174 2 31.1
2019-Jul-15 15:15 137 2 30.6
2019-Jul-15 15:03 138 3 30.0
2019-Jul-15 14:54 103 2 30.6
2019-Jul-15 14:47 154 2 29.4
2019-Jul-15 14:43 186 2 30.0
2019-Jul-15 14:34 124 2 30.0
2019-Jul-15 14:23 103 2 29.4
2019-Jul-15 14:15 113 1 28.9
2019-Jul-15 14:14 130 1 29.4
2019-Jul-15 14:04 131 2 29.4
2019-Jul-15 13:53 109 2 29.4
2019-Jul-15 13:45 121 2 28.9
2019-Jul-15 13:34 141 3 28.9
2019-Jul-15 13:30 114 2 28.3
2019-Jul-15 13:24 116 2 28.9
2019-Jul-15 13:16 131 2 28.3
2019-Jul-15 13:13 117 2 28.3
2019-Jul-15 13:03 148 2 28.3
2019-Jul-15 13:00 100 2 27.8
2019-Jul-15 12:54 157 2 27.8
2019-Jul-15 12:45 120 2 27.8
2019-Jul-15 12:33 121 1 27.2
2019-Jul-15 12:30 199 0 27.2
2019-Jul-15 12:24 106 1 27.2
2019-Jul-15 12:16 134 1 26.1
2019-Jul-15 12:13 100 1 26.7
2019-Jul-15 12:04 112 1 26.1
2019-Jul-15 11:54 117 0 25.6
2019-Jul-15 11:48 261 0 25.0
2019-Jul-15 11:43 261 0 25.0
2019-Jul-15 11:34 267 0 25.0
2019-Jul-15 11:23 267 24.4
2019-Jul-15 11:15 267 24.4
2019-Jul-15 11:13 267 24.4
2019-Jul-15 11:03 267 24.4
2019-Jul-15 11:00 267 24.4
2019-Jul-15 10:54 267 24.4
2019-Jul-15 10:46 267 24.4
2019-Jul-15 10:43 267 24.4
2019-Jul-15 10:34 137 24.4
2019-Jul-15 10:23 137 0 24.4
2019-Jul-15 10:15 137 24.4
2019-Jul-15 10:03 137 25.0
2019-Jul-15 09:54 137 24.4
2019-Jul-15 09:45 137 24.4
2019-Jul-15 09:34 137 24.4
2019-Jul-15 09:23 137 25.0
2019-Jul-15 09:17 137 24.4
2019-Jul-15 09:13 137 25.0
2019-Jul-15 09:04 137 25.0
2019-Jul-15 08:53 137 25.0
2019-Jul-15 08:45 137 25.0
2019-Jul-15 08:44 137 25.0
2019-Jul-15 08:33 137 25.6
2019-Jul-15 08:24 137 25.6
2019-Jul-15 08:17 137 25.0
2019-Jul-15 08:13 137 25.6
2019-Jul-15 08:03 137 0 25.6
2019-Jul-15 08:00 137 0 25.6
2019-Jul-15 07:54 137 0 26.1
2019-Jul-15 07:46 137 0 25.6
2019-Jul-15 07:43 137 0 26.1
2019-Jul-15 07:34 137 0 26.1
2019-Jul-15 07:23 137 0 26.1
2019-Jul-15 07:15 137 0 26.1
2019-Jul-15 07:03 137 0 26.7
2019-Jul-15 06:53 137 0 27.2
2019-Jul-15 06:45 138 0 26.7
2019-Jul-15 06:34 120 0 27.2
2019-Jul-15 06:30 141 0 26.7
2019-Jul-15 06:24 141 0 27.2
2019-Jul-15 06:16 137 0 26.7
2019-Jul-15 06:13 137 0 27.2
2019-Jul-15 06:04 164 1 26.7
2019-Jul-15 05:53 054 0 26.7
2019-Jul-15 05:45 343 26.1
2019-Jul-15 05:34 343 26.1
2019-Jul-15 05:30 343 26.1
2019-Jul-15 05:24 343 26.7
2019-Jul-15 05:15 343 26.1
2019-Jul-15 05:03 343 26.7
2019-Jul-15 04:54 343 26.7
2019-Jul-15 04:47 343 26.7
2019-Jul-15 04:43 343 26.7
2019-Jul-15 04:34 343 26.7
2019-Jul-15 04:23 343 27.2
2019-Jul-15 04:15 343 26.7
2019-Jul-15 04:14 343 27.2
2019-Jul-15 04:04 343 27.2